Probability
0 0 0 0 0 0 0 0 0 0 0 1 4 8 11 14 17 19 19 17 14 11 11 15 20 26 30 29 25 23 24 23 22 22 23 21 17 14 14 11 5 2 4 6
0 0 0 0 0 0 0 0 0 0 0 2 4 7 9 10 13 16 17 14 12 10 11 15 19 23 26 27 24 22 23 23 21 20 20 19 15 13 12 10 5 2 2 3
0 0 0 0 0 0 0 0 0 0 0 1 2 3 4 4 6 9 11 10 10 10 10 12 14 17 20 23 22 21 21 21 19 17 16 15 13 11 10 7 4 1 0 1
0 0 0 0 0 0 0 0 0 1 0 0 1 1 1 1 2 4 6 7 9 9 8 8 10 11 14 18 19 18 18 17 16 14 13 12 11 9 7 5 3 2 1 1
0 0 0 0 0 0 0 0 0 0 0 0 0 0 0 0 1 1 3 5 7 8 7 7 7 8 10 13 15 15 14 13 13 11 11 10 9 7 5 4 3 2 2 3
0 0 0 0 0 0 0 0 0 0 0 0 0 0 0 0 0 0 1 2 3 6 7 7 6 7 8 10 11 11 10 10 10 10 9 8 7 5 3 3 3 2 3 4
0 0 0 0 0 0 0 0 0 0 0 0 0 0 1 0 0 0 0 0 1 3 5 5 5 5 5 6 8 8 8 7 8 7 6 5 5 4 3 3 3 3 3 3
0 0 0 0 0 0 0 0 0 0 0 0 0 1 1 0 0 0 0 0 0 1 2 2 2 2 2 3 4 5 5 5 4 3 2 2 2 3 3 3 3 3 2 1
0 0 0 0 0 0 0 0 0 0 0 0 0 1 0 0 0 0 0 1 0 0 0 0 0 0 1 2 2 3 3 2 1 1 0 0 2 3 3 3 2 1 1 0
0 0 0 0 0 0 0 0 0 0 0 0 0 0 0 0 0 0 0 0 0 0 0 0 0 0 1 1 1 1 1 0 0 0 0 1 2 3 2 1 1 0 0 0
0 0 0 0 0 0 0 0 0 0 0 0 0 0 0 0 0 0 0 0 0 0 0 0 0 0 0 0 0 0 0 0 0 0 0 1 2 2 1 0 0 0 0 0
0 0 0 0 0 0 0 0 0 0 0 0 0 0 0 0 0 0 0 0 0 0 0 0 0 0 0 0 0 0 0 0 0 0 0 1 1 1 0 0 0 0 0 0
0 0 0 0 0 0 0 0 0 0 0 0 0 0 0 0 0 0 0 0 0 0 0 0 0 0 0 0 0 0 0 0 0 0 0 0 0 0 0 0 0 0 0 0
0 0 0 0 0 0 0 0 0 0 0 0 0 0 0 0 0 0 0 0 0 0 0 0 0 0 0 0 0 0 0 0 0 0 0 0 0 0 0 0 0 0 0 0
0 0 0 0 0 0 0 0 0 0 0 0 0 0 0 0 0 0 0 0 0 0 0 0 0 0 0 0 0 0 0 0 0 0 0 0 0 0 0 0 0 0 0 0
0 0 0 0 0 0 0 0 0 0 0 0 0 0 0 0 0 0 0 0 0 0 0 0 0 0 0 0 0 0 0 0 0 0 0 0 0 0 0 0 0 0 0 0
0 0 0 0 0 0 0 0 0 0 0 0 0 0 0 0 0 0 0 0 0 0 0 0 0 0 0 0 0 0 0 0 0 0 0 0 0 0 0 0 0 0 0 0
0 0 0 0 0 0 0 0 0 0 0 0 0 0 0 0 0 0 0 0 0 0 0 0 0 0 0 0 0 0 0 0 0 0 0 0 0 0 0 0 0 0 0 0
0 0 0 0 0 0 0 0 0 0 0 0 0 0 0 0 0 0 0 0 0 0 0 0 0 0 0 0 0 0 0 0 0 0 0 0 0 0 0 0 0 0 0 0
0 0 0 0 0 0 0 0 0 0 0 0 0 0 0 0 0 0 0 0 0 0 0 0 0 0 0 0 0 0 0 0 0 0 0 0 0 0 0 0 0 0 0 0
0 0 0 0 0 0 0 0 0 0 0 0 0 0 0 0 0 0 0 0 0 0 0 0 0 0 0 0 0 0 0 0 0 0 0 0 0 0 0 0 0 0 0 0
0 0 0 0 0 0 0 0 0 0 0 0 0 0 0 0 0 0 0 0 0 0 0 0 0 0 0 0 0 0 0 0 0 0 0 0 0 0 0 0 0 0 0 0
0 0 0 0 0 0 0 0 0 0 0 0 0 0 0 0 0 0 0 0 0 0 0 0 0 0 0 0 0 0 0 0 0 0 0 0 0 0 0 0 0 0 0 0
0 0 0 0 0 0 0 0 0 0 0 0 0 0 0 0 0 0 0 0 0 0 0 0 0 0 0 0 0 0 0 0 0 0 0 0 0 0 0 0 0 0 0 0
0 0 0 0 0 0 0 0 0 0 0 0 0 0 0 0 0 0 0 0 0 0 0 0 0 0 0 0 0 0 0 0 0 0 0 0 0 0 0 0 0 0 0 0
0 0 0 0 0 0 0 0 0 0 0 0 0 0 0 0 0 0 0 0 0 0 0 0 0 0 0 0 0 0 0 0 0 0 0 0 0 0 0 0 0 0 0 0
Wind_Speed
3 3 3 7 7 6 3 3 6 6 3 2 4 5 5 5 6 6 5 6 6 5 5 6 5 4 4 4 4 3 3 3 3 3 4 4 3 3 3 3 5 4 4 4
4 4 8 5 3 4 4 3 4 4 1 3 6 7 6 6 6 5 6 6 6 6 7 7 7 6 6 6 5 3 3 2 2 2 2 3 3 3 3 4 6 6 5 4
6 7 2 2 2 2 4 5 5 3 1 3 5 3 3 5 6 7 8 7 7 7 7 8 8 7 7 6 5 3 4 3 2 3 4 4 4 3 3 5 5 6 6 7
6 6 2 2 3 3 5 6 6 4 3 2 2 2 2 3 4 6 7 7 8 8 8 8 8 8 8 6 5 5 4 3 3 3 5 6 4 4 4 4 5 7 7 7
5 2 2 3 4 3 5 2 1 2 3 2 1 4 2 4 3 3 4 6 7 8 8 8 8 7 7 7 6 5 4 5 4 3 4 6 6 6 6 7 9 8 7 8
6 2 2 3 2 2 1 3 4 5 4 1 2 3 3 3 4 5 4 6 7 7 8 8 8 8 8 7 7 6 6 6 6 6 6 7 9 9 9 8 8 7 6 7
5 4 2 1 1 3 3 5 4 5 4 2 1 3 2 1 4 6 6 6 7 7 7 8 9 8 8 8 8 7 7 8 7 8 8 8 9 10 10 9 8 7 6 6
2 5 3 1 2 2 1 5 6 3 3 3 2 1 1 3 6 7 7 7 7 7 7 8 8 8 8 8 8 7 7 8 9 9 9 9 9 8 7 8 8 7 6 6
4 5 3 1 0 3 2 1 3 5 2 1 1 1 2 5 7 8 7 7 7 7 7 7 7 8 8 8 8 8 8 9 9 9 10 10 10 10 10 10 9 8 7 7
5 3 4 3 3 4 2 5 4 4 4 1 2 3 4 6 6 7 7 6 6 6 6 7 7 7 7 8 8 9 10 10 10 10 10 10 10 11 10 10 10 9 9 8
3 3 4 3 2 1 1 3 4 3 3 4 2 3 1 6 8 9 8 7 6 6 6 6 6 6 7 8 9 9 10 10 10 11 11 11 11 10 10 10 10 9 8 8
3 5 1 3 3 1 1 2 4 3 2 3 3 3 3 4 7 9 9 8 7 7 7 7 7 7 8 9 9 9 9 10 10 10 11 10 10 10 10 10 9 9 9 8
5 5 3 5 6 3 2 1 2 4 3 3 3 2 3 7 8 8 9 9 8 8 8 7 7 7 8 8 9 9 9 9 9 10 10 10 10 9 9 9 8 8 8 8
6 4 5 5 5 2 1 1 2 4 3 2 3 3 4 7 8 8 9 9 8 8 8 7 7 7 7 8 8 9 8 8 9 10 10 9 8 8 8 8 7 7 7 7
5 3 2 2 1 0 0 1 1 2 3 4 3 3 4 6 8 8 9 9 9 9 8 8 7 7 7 7 7 7 8 7 8 9 9 8 7 7 7 7 7 6 7 7
4 4 2 2 2 2 2 2 2 2 2 3 3 1 3 6 7 8 9 10 10 9 9 8 8 8 7 7 6 7 7 6 7 8 7 7 7 7 7 6 6 6 6 6
3 4 3 1 1 3 2 2 0 1 1 2 2 3 7 7 8 9 9 9 10 10 10 9 8 7 7 6 6 6 6 6 7 7 6 6 6 6 5 5 6 5 5 5
7 5 3 2 2 2 4 1 3 4 1 1 2 5 6 6 6 5 6 9 10 10 10 9 8 7 6 6 6 6 6 6 6 6 5 5 5 5 5 5 5 4 3 3
5 7 4 3 1 3 2 1 3 3 0 1 5 7 7 9 7 5 5 7 8 8 9 8 7 7 7 6 6 6 6 6 6 5 4 4 4 4 4 4 3 2 2 2
5 5 5 4 2 4 4 1 3 4 1 2 6 9 9 6 4 3 6 9 10 10 9 8 7 8 7 6 6 7 6 5 5 4 3 3 4 4 4 3 2 2 2 2
3 4 3 3 2 5 2 0 3 2 5 4 6 8 7 3 4 7 10 9 10 10 9 8 8 7 6 6 6 6 5 4 3 3 3 4 3 3 3 3 2 3 3 3
5 4 3 3 2 5 2 3 3 4 2 5 6 6 7 9 11 11 11 11 11 11 10 9 8 7 5 6 7 6 4 3 3 3 4 4 3 3 3 4 3 3 3 3
3 5 5 5 5 2 2 1 1 3 5 4 6 8 12 12 11 11 11 11 10 10 9 7 8 7 5 4 6 5 2 3 3 4 4 3 4 3 3 3 3 3 3 3
2 3 4 2 0 2 3 3 4 4 5 6 9 11 12 12 12 12 11 10 9 8 8 7 8 7 5 4 4 3 2 3 4 3 3 3 3 3 4 3 2 2 2 2
5 4 4 2 2 4 3 4 6 8 10 12 10 9 11 14 12 11 10 10 8 8 6 6 6 6 5 4 3 2 2 3 3 3 2 2 3 3 3 3 2 2 1 1
5 7 8 7 9 7 5 6 8 10 10 12 12 11 10 11 12 11 9 8 7 7 6 6 6 5 4 4 3 2 2 3 3 2 2 1 2 2 2 2 2 2 0 0
Wind_Direction
53 68 248 237 207 212 230 249 274 277 278 78 101 92 52 51 59 63 67 66 68 60 40 39 43 56 71 74 79 89 99 122 139 149 157 152 138 124 103 87 83 88 98 107
28 272 243 236 213 201 213 250 266 292 341 113 113 89 65 58 59 61 66 59 58 57 47 40 39 44 51 62 62 72 94 119 138 143 148 136 125 113 103 86 71 63 70 77
210 246 248 198 233 230 234 210 224 218 36 81 114 90 86 76 75 66 61 59 51 50 44 39 37 35 39 41 44 51 69 81 94 101 102 110 106 101 91 82 71 60 68 75
236 260 240 234 254 206 263 235 205 186 145 211 171 158 165 120 78 64 58 55 51 45 45 43 38 35 34 32 35 43 60 72 78 103 124 128 124 111 97 93 81 63 59 68
256 244 228 241 245 193 231 271 176 176 153 118 50 140 201 150 137 106 78 65 57 47 46 44 39 34 31 29 35 35 46 58 66 85 106 114 113 107 100 92 84 72 59 56
253 265 220 230 255 195 204 52 53 52 76 86 250 149 202 192 176 145 112 80 64 53 49 46 42 40 35 30 36 42 53 52 58 72 82 97 109 113 108 97 91 79 69 60
317 317 295 205 343 8 68 79 31 8 21 256 280 126 200 159 137 138 128 98 72 57 48 42 37 37 36 30 31 40 56 59 61 72 77 88 99 105 105 102 96 89 79 69
285 301 297 261 189 209 191 137 155 190 214 272 335 135 151 89 103 105 106 98 84 67 55 49 39 36 37 34 33 42 57 68 69 74 76 79 86 91 92 92 93 87 82 78
196 261 301 327 297 148 135 144 157 131 134 136 240 132 136 122 120 118 112 100 87 75 64 59 49 42 42 41 41 46 59 68 71 77 80 77 79 84 89 89 86 85 84 84
166 243 306 319 44 34 108 142 97 116 150 213 242 209 198 180 163 142 128 111 93 83 71 60 55 51 49 50 52 54 58 66 69 71 77 82 79 81 86 87 86 83 80 80
130 158 317 5 37 303 53 82 99 111 149 156 209 254 229 183 167 151 137 121 108 95 82 69 63 60 60 59 59 60 64 68 70 74 79 81 82 84 83 82 82 81 78 76
124 120 295 295 292 252 131 157 148 148 202 164 164 263 1 134 136 135 130 122 111 101 88 78 70 69 68 65 63 65 66 70 73 77 80 80 81 82 83 82 79 79 78 74
133 107 59 348 341 355 42 67 121 119 114 143 158 230 74 103 117 125 127 123 115 106 96 85 76 72 73 73 71 70 70 72 75 79 81 81 79 81 83 83 80 79 80 77
112 106 153 192 229 253 326 21 131 116 132 181 205 176 141 132 134 132 127 124 118 111 104 97 89 81 78 77 78 80 76 77 80 81 82 81 80 82 83 83 80 78 80 80
99 118 181 224 252 156 80 35 87 132 175 179 199 165 163 154 147 139 134 131 126 122 117 111 104 96 89 86 84 83 81 79 85 86 83 82 84 83 83 82 82 79 77 79
84 121 98 21 31 82 66 35 62 76 95 114 115 120 122 124 125 134 140 141 138 135 128 122 117 111 103 97 94 90 86 84 85 86 85 84 83 82 81 82 83 80 76 72
103 119 109 279 336 39 334 305 111 93 85 144 183 174 139 138 144 149 149 148 144 140 136 131 125 117 111 105 101 99 96 91 87 86 87 87 87 84 81 87 83 82 79 76
125 109 114 113 60 256 261 304 131 112 67 81 103 127 140 130 114 112 132 140 139 139 137 133 127 118 110 106 102 98 97 96 92 90 91 92 93 91 86 84 83 81 81 82
127 129 115 116 146 289 292 164 137 127 32 100 123 122 114 115 97 86 107 124 131 130 128 126 124 119 114 113 110 104 98 96 96 94 92 97 100 99 91 86 84 87 94 85
69 92 109 123 154 240 250 269 142 108 278 163 141 142 141 133 131 147 129 118 118 116 118 119 117 114 111 109 107 102 99 98 97 95 97 100 103 104 98 92 81 80 94 92
69 61 103 143 202 260 276 157 126 177 248 158 151 148 146 133 135 131 123 115 117 117 117 116 113 109 112 114 111 106 102 101 102 100 94 88 89 96 97 83 63 72 81 77
156 145 163 143 195 259 358 123 166 203 117 123 132 132 119 111 112 117 118 118 119 117 115 115 111 105 104 110 108 102 103 103 93 88 86 81 78 81 97 92 75 68 81 80
163 178 173 174 201 249 354 88 84 128 124 125 128 126 126 123 124 121 119 119 118 118 116 114 115 110 101 106 113 117 117 98 91 83 78 72 71 67 83 98 92 74 72 80
163 127 110 118 106 61 64 70 69 89 111 118 125 128 128 126 127 124 122 118 117 117 116 117 117 117 113 110 111 119 112 104 101 90 79 76 78 75 68 71 83 87 85 83
172 136 113 126 145 105 66 92 103 96 101 105 106 112 124 126 127 126 124 124 123 119 116 119 124 126 130 126 116 108 110 109 100 89 81 77 84 98 88 72 66 86 110 186
182 165 165 197 186 159 158 139 123 116 116 119 115 108 114 123 125 123 124 125 125 124 121 123 125 129 133 129 119 107 112 116 114 100 92 96 106 109 110 102 58 33 91 120